User: anonymous   Login
Location: Skalnate Pleso
(49.1889°N, 20.2450°E)
Time: 21:49:24
(UTC+01:00)
Language:

Cosmos 1151 Rocket - Orbit

View from above orbital plane
View from above orbital plane
View from above satellite
View from above satellite

Ground track
Ground track

The orbit data is extracted from the following two-line orbital elements,

1 11672U 80005B   20020.18106087  .00000059  00000-0  37288-5 0  9992
2 11672  82.5151 265.4532 0018012  56.1338 304.1590 14.87983071164210
Epoch (UTC): 20 January 2020 04:20:43
Eccentricity: 0.0018012
inclination: 82.5151°
perigee height: 591 km
apogee height: 617 km
right ascension of ascending node: 265.4532°
argument of perigee: 56.1338°
revolutions per day: 14.87983071
mean anomaly at epoch: 304.1590°
orbit number at epoch: 16421

The dashed part of the orbit path shows where the satellite is in the earth's shadow,  

DLR